This demonstration page uses our WeatherBlox Daily Observations layout. Learn more.

Hourly Observations for December 5, 2019

Temp ( °F °C ) Dew Point ( °F °C ) Humidity (%) Winds ( mph kmh ) Pressure ( in mb ) Visibility ( mi km ) Precip ( " mm )
12:54 am 00:54 Clear 30 -1.1 26 -3.3 85 85 Calm 29.94 1014 10 16.0934 0 0
1:54 am 01:54 Clear 24 -4.4 21 -6.1 88 88 Calm 29.95 1014 10 16.0934 0 0
2:54 am 02:54 Clear 26 -3.3 23 -5 88 88 Calm 29.94 1014 10 16.0934 0 0
3:54 am 03:54 Clear 26 -3.3 24 -4.4 92 92 Calm 29.93 1014 10 16.0934 0 0
4:54 am 04:54 Clear 27 -2.8 23 -5 85 85 Calm 29.93 1013 10 16.0934 0 0
5:54 am 05:54 Clear 25 -3.9 23 -5 92 92 Calm 29.93 1014 10 16.0934 0 0
6:54 am 06:54 Clear 22 -5.6 19 -7.2 89 89 Calm 29.94 1014 10 16.0934 0 0
7:54 am 07:54 Sunny 26 -3.3 22 -5.6 84 84 Calm 29.94 1014 9 14.48406 0 0
8:54 am 08:54 Sunny 31 -0.6 28 -2.2 89 89 Calm 29.95 1014 10 16.0934 0 0
9:54 am 09:54 Sunny 37 2.8 31 -0.6 79 79 Calm 29.95 1014 10 16.0934 0 0
10:54 am 10:54 Sunny 44 6.7 34 1.1 68 68 Calm 29.94 1014 10 16.0934 0 0
11:54 am 11:54 Sunny 50 10 36 2.2 59 59 S 3 6 29.92 1013 10 16.0934 0 0
12:54 pm 12:54 Sunny 56 13.3 34 1.1 44 44 SW 6 9 29.89 1012 10 16.0934 0 0
1:54 pm 13:54 Sunny 58 14.4 35 1.7 42 42 SW 5 7 29.87 1012 10 16.0934 0 0
2:54 pm 14:54 Sunny 59 15 35 1.7 41 41 WSW 3 6 29.88 1012 10 16.0934 0 0
3:54 pm 15:54 Sunny 58 14.4 36 2.2 44 44 NW 10 17 29.91 1013 10 16.0934 0 0
4:54 pm 16:54 Sunny 52 11.1 37 2.8 57 57 NW 7 11 29.96 1015 10 16.0934 0 0
5:54 pm 17:54 Clear 48 8.9 35 1.7 61 61 N 17 28 30.01 1016 10 16.0934 0 0
6:54 pm 18:54 Clear 44 6.7 33 0.6 65 65 NNW 18 30 30.05 1018 10 16.0934 0 0
7:54 pm 19:54 Clear 40 4.4 31 -0.6 70 70 N 16 26 30.09 1019 10 16.0934 0 0
8:54 pm 20:54 Clear 39 3.9 31 -0.6 73 73 N 17 28 30.13 1020 10 16.0934 0 0
9:29 pm 21:29 Mostly Cloudy 38 3.3 31 -0.6 76 76 N 16 26 30.18 1022 10 16.0934 0 0
9:54 pm 21:54 Cloudy 38 3.3 31 -0.6 76 76 N 17 28 30.18 1022 10 16.0934 0 0
10:16 pm 22:16 Cloudy 37 2.8 31 -0.6 79 79 N 20 31 30.22 1023 10 16.0934 0 0
10:35 pm 22:35 Cloudy 37 2.8 30 -1.1 76 76 N 16 26 30.24 1024 10 16.0934 0 0
10:54 pm 22:54 Cloudy 37 2.8 30 -1.1 76 76 N 18 30 30.22 1023 10 16.0934 0 0
11:54 pm 23:54 Cloudy 35 1.7 28 -2.2 76 76 N 21 33 30.26 1025 10 16.0934 0 0

Powered by AerisWeather